When you browse on this site, cookies collect data to enhance your experience and personalize the content and advertising you see.
Visit our Privacy Policy to learn more. By continuing to use the site, you agree to this use of cookies and data.
  • In Österreich
  • Länderverzeichnis
  • Für 7 Tage
  • Wassertemperatur
  • Satellitenkarten
  • Wetterkarte
  • News
  • Widgets
  • user-avatar
    Anmelden

    Stündliche Wetter Buda (Dyakovichi)

    Heute, 23 Mai, Donnerstag

    Zeit Temperatur Niederschläge Wind Luftdruck Luftfeuchtigkeit
    00:00 +15°C° 0 mm 1 m/S 744 mmHg 82%
    01:00 +14°C° 0 mm 1 m/S 744 mmHg 83%
    02:00 +14°C° 0 mm 1 m/S 744 mmHg 83%
    03:00 +14°C° 0 mm 1 m/S 744 mmHg 83%
    04:00 +14°C° 0 mm 1 m/S 744 mmHg 84%
    05:00 +14°C° 0 mm 1 m/S 744 mmHg 84%
    06:00 +16°C° 0 mm 1 m/S 744 mmHg 77%
    07:00 +19°C° 0 mm 1 m/S 744 mmHg 70%
    08:00 +22°C° 0 mm 1 m/S 744 mmHg 64%
    09:00 +23°C° 0.4 mm 1 m/S 744 mmHg 61%
    10:00 +24°C° 0.4 mm 1 m/S 744 mmHg 58%
    11:00 +25°C° 0.4 mm 1 m/S 744 mmHg 54%
    12:00 +26°C° 0.1 mm 1 m/S 744 mmHg 52%
    13:00 +26°C° 0.1 mm 1 m/S 744 mmHg 49%
    14:00 +26°C° 0.1 mm 1 m/S 744 mmHg 46%
    15:00 +26°C° 0 mm 1 m/S 744 mmHg 47%
    16:00 +26°C° 0 mm 1 m/S 744 mmHg 49%
    17:00 +26°C° 0 mm 1 m/S 743 mmHg 50%
    18:00 +24°C° 0 mm 1 m/S 744 mmHg 57%
    19:00 +22°C° 0 mm 1 m/S 744 mmHg 63%
    20:00 +20°C° 0 mm 1 m/S 744 mmHg 69%
    21:00 +20°C° 0.1 mm 1 m/S 744 mmHg 73%
    22:00 +19°C° 0.1 mm 1 m/S 744 mmHg 76%
    23:00 +18°C° 0.1 mm 1 m/S 744 mmHg 79%

    Morgen, 24 Mai, Freitag

    Zeit Temperatur Niederschläge Wind Luftdruck Luftfeuchtigkeit
    00:00 +16°C° 0 mm 1 m/S 744 mmHg 81%
    01:00 +16°C° 0 mm 1 m/S 744 mmHg 82%
    02:00 +16°C° 0 mm 1 m/S 744 mmHg 83%
    03:00 +16°C° 0 mm 1 m/S 744 mmHg 84%
    04:00 +15°C° 0 mm 1 m/S 744 mmHg 85%
    05:00 +15°C° 0 mm 1 m/S 744 mmHg 86%
    06:00 +18°C° 0 mm 1 m/S 744 mmHg 80%
    07:00 +20°C° 0 mm 1 m/S 745 mmHg 74%
    08:00 +22°C° 0 mm 1 m/S 745 mmHg 68%
    09:00 +23°C° 0.6 mm 1 m/S 745 mmHg 65%
    10:00 +24°C° 0.6 mm 1 m/S 744 mmHg 62%
    11:00 +25°C° 0.6 mm 1 m/S 744 mmHg 59%
    12:00 +26°C° 0 mm 1 m/S 744 mmHg 55%
    13:00 +27°C° 0 mm 2 m/S 744 mmHg 52%
    14:00 +27°C° 0 mm 2 m/S 744 mmHg 48%
    15:00 +26°C° 0.9 mm 2 m/S 744 mmHg 56%
    16:00 +25°C° 0.9 mm 2 m/S 743 mmHg 63%
    17:00 +24°C° 0.9 mm 3 m/S 743 mmHg 70%
    18:00 +23°C° 0.5 mm 2 m/S 743 mmHg 77%
    19:00 +20°C° 0.5 mm 2 m/S 743 mmHg 83%
    20:00 +19°C° 0.5 mm 2 m/S 743 mmHg 90%
    21:00 +18°C° 0.6 mm 2 m/S 743 mmHg 92%
    22:00 +17°C° 0.6 mm 2 m/S 743 mmHg 93%
    23:00 +16°C° 0.6 mm 2 m/S 743 mmHg 95%

    übermorgen, 25 Mai, Samstag

    Zeit Temperatur Niederschläge Wind Luftdruck Luftfeuchtigkeit
    00:00 +16°C° 0 mm 1 m/S 743 mmHg 95%
    01:00 +16°C° 0 mm 1 m/S 743 mmHg 96%
    02:00 +16°C° 0 mm 1 m/S 743 mmHg 96%
    03:00 +15°C° 0 mm 1 m/S 743 mmHg 96%
    04:00 +15°C° 0 mm 1 m/S 743 mmHg 96%
    05:00 +15°C° 0 mm 2 m/S 743 mmHg 96%
    06:00 +16°C° 0 mm 2 m/S 743 mmHg 92%
    07:00 +18°C° 0 mm 2 m/S 743 mmHg 88%
    08:00 +19°C° 0 mm 2 m/S 743 mmHg 83%
    09:00 +20°C° 0.5 mm 3 m/S 743 mmHg 78%
    10:00 +21°C° 0.5 mm 3 m/S 743 mmHg 73%
    11:00 +22°C° 0.5 mm 4 m/S 743 mmHg 67%
    12:00 +23°C° 0.3 mm 4 m/S 743 mmHg 64%
    13:00 +23°C° 0.3 mm 4 m/S 743 mmHg 60%
    14:00 +25°C° 0.3 mm 4 m/S 743 mmHg 56%
    15:00 +23°C° 0 mm 4 m/S 742 mmHg 57%
    16:00 +23°C° 0 mm 4 m/S 742 mmHg 57%
    17:00 +23°C° 0 mm 4 m/S 742 mmHg 57%
    18:00 +21°C° 0 mm 4 m/S 742 mmHg 63%
    19:00 +19°C° 0 mm 3 m/S 742 mmHg 68%
    20:00 +17°C° 0 mm 2 m/S 742 mmHg 74%
    21:00 +16°C° 0 mm 2 m/S 743 mmHg 77%
    22:00 +15°C° 0 mm 2 m/S 743 mmHg 81%
    23:00 +14°C° 0 mm 2 m/S 743 mmHg 84%

    26 Mai, Sonntag

    Zeit Temperatur Niederschläge Wind Luftdruck Luftfeuchtigkeit
    00:00 +14°C° 0 mm 2 m/S 743 mmHg 87%
    01:00 +13°C° 0 mm 2 m/S 743 mmHg 90%
    02:00 +13°C° 0 mm 2 m/S 744 mmHg 93%
    03:00 +12°C° 0 mm 2 m/S 744 mmHg 94%
    04:00 +12°C° 0 mm 2 m/S 744 mmHg 94%
    05:00 +12°C° 0 mm 2 m/S 744 mmHg 94%
    06:00 +13°C° 0 mm 2 m/S 744 mmHg 85%
    07:00 +15°C° 0 mm 2 m/S 744 mmHg 76%
    08:00 +16°C° 0 mm 3 m/S 744 mmHg 67%
    09:00 +17°C° 0 mm 3 m/S 744 mmHg 63%
    10:00 +19°C° 0 mm 3 m/S 744 mmHg 58%
    11:00 +20°C° 0 mm 4 m/S 744 mmHg 54%
    12:00 +20°C° 0 mm 4 m/S 744 mmHg 52%
    13:00 +21°C° 0 mm 4 m/S 744 mmHg 51%
    14:00 +22°C° 0 mm 5 m/S 744 mmHg 50%
    15:00 +21°C° 0 mm 5 m/S 743 mmHg 51%
    16:00 +21°C° 0 mm 5 m/S 743 mmHg 52%
    17:00 +21°C° 0 mm 5 m/S 743 mmHg 53%
    18:00 +19°C° 0 mm 4 m/S 743 mmHg 61%
    19:00 +18°C° 0 mm 3 m/S 743 mmHg 69%
    20:00 +16°C° 0 mm 3 m/S 743 mmHg 77%
    21:00 +16°C° 0 mm 3 m/S 743 mmHg 81%
    22:00 +15°C° 0 mm 2 m/S 743 mmHg 84%
    23:00 +14°C° 0 mm 2 m/S 744 mmHg 87%

    27 Mai, Montag

    Zeit Temperatur Niederschläge Wind Luftdruck Luftfeuchtigkeit
    00:00 +13°C° 0 mm 2 m/S 744 mmHg 89%
    01:00 +13°C° 0 mm 2 m/S 744 mmHg 91%
    02:00 +12°C° 0 mm 2 m/S 744 mmHg 93%
    03:00 +12°C° 0 mm 2 m/S 745 mmHg 92%
    04:00 +10°C° 0 mm 3 m/S 745 mmHg 91%
    05:00 +10°C° 0 mm 3 m/S 745 mmHg 91%
    06:00 +12°C° 0 mm 3 m/S 746 mmHg 81%
    07:00 +13°C° 0 mm 4 m/S 746 mmHg 72%
    08:00 +14°C° 0 mm 4 m/S 746 mmHg 63%
    09:00 +15°C° 0 mm 4 m/S 746 mmHg 60%
    10:00 +18°C° 0 mm 4 m/S 746 mmHg 58%
    11:00 +19°C° 0 mm 4 m/S 747 mmHg 55%
    12:00 +19°C° 0 mm 4 m/S 746 mmHg 55%
    13:00 +20°C° 0 mm 4 m/S 746 mmHg 55%
    14:00 +21°C° 0 mm 4 m/S 746 mmHg 56%
    15:00 +21°C° 0 mm 3 m/S 746 mmHg 56%
    16:00 +21°C° 0 mm 3 m/S 746 mmHg 57%
    17:00 +21°C° 0 mm 2 m/S 746 mmHg 58%
    18:00 +20°C° 0 mm 2 m/S 746 mmHg 64%
    19:00 +19°C° 0 mm 1 m/S 746 mmHg 71%
    20:00 +16°C° 0 mm 0 m/S 746 mmHg 77%
    21:00 +16°C° 0 mm 1 m/S 746 mmHg 78%
    22:00 +16°C° 0 mm 2 m/S 746 mmHg 79%
    23:00 +15°C° 0 mm 2 m/S 746 mmHg 80%

    28 Mai, Dienstag

    Zeit Temperatur Niederschläge Wind Luftdruck Luftfeuchtigkeit
    00:00 +15°C° 0 mm 2 m/S 746 mmHg 79%
    01:00 +16°C° 0 mm 3 m/S 745 mmHg 78%
    02:00 +16°C° 0 mm 3 m/S 745 mmHg 76%
    03:00 +16°C° 0.5 mm 3 m/S 745 mmHg 82%
    04:00 +16°C° 0.5 mm 3 m/S 744 mmHg 87%
    05:00 +15°C° 0.5 mm 4 m/S 744 mmHg 92%
    06:00 +15°C° 2.6 mm 4 m/S 743 mmHg 93%
    07:00 +17°C° 2.6 mm 4 m/S 743 mmHg 95%
    08:00 +18°C° 2.6 mm 4 m/S 743 mmHg 96%
    09:00 +20°C° 0 mm 5 m/S 742 mmHg 87%
    10:00 +22°C° 0 mm 5 m/S 742 mmHg 78%
    11:00 +25°C° 0 mm 5 m/S 742 mmHg 69%
    12:00 +24°C° 0.1 mm 6 m/S 742 mmHg 66%
    13:00 +26°C° 0.1 mm 6 m/S 742 mmHg 64%
    14:00 +27°C° 0.1 mm 6 m/S 741 mmHg 61%
    15:00 +26°C° 2 mm 5 m/S 741 mmHg 69%
    16:00 +23°C° 2 mm 5 m/S 741 mmHg 77%
    17:00 +22°C° 2 mm 4 m/S 741 mmHg 85%
    18:00 +21°C° 1.3 mm 4 m/S 741 mmHg 87%
    19:00 +21°C° 1.3 mm 3 m/S 741 mmHg 89%
    20:00 +20°C° 1.3 mm 3 m/S 741 mmHg 91%
    21:00 +19°C° 0 mm 3 m/S 741 mmHg 92%
    22:00 +19°C° 0 mm 3 m/S 741 mmHg 93%
    23:00 +19°C° 0 mm 3 m/S 741 mmHg 94%
    Mehr zeigen